Tracking 35274 objects as of 11-Sep-2026
HD Live streaming from Space Station
objects crossing your sky now

STARLINK-1771

Track STARLINK-1771 now!
10-day predictions
STARLINK-1771 is classified as:


NORAD ID: 46384
Int'l Code: 2020-062BM
Launch date: September 3, 2020
Source: United States (US)
Launch site: AIR FORCE EASTERN TEST RANGE (AFETR)
Your satellite tracking list
Your tracking list is empty




NASA's NSSDC Master Catalog

Two Line Element Set (TLE):
1 46384U 20062BM  26254.14842978  .00058263  00000-0  41702-3 0  9998
2 46384  53.0343 161.0932 0004540 102.7442 257.4083 15.73165589333705
Source of the keplerian elements: AFSPC